User: anonymous   Login
Location: *
(37.5724°S, 58.0067°E)
Time: 11:54:35
(UTC+00:00)
Language:

Atlas Centaur 2 - Orbit

View from above orbital plane
View from above orbital plane
View from above satellite
View from above satellite

Ground track
Ground track

The orbit data is extracted from the following two-line orbital elements,

1   694U 63047A   20330.04278704  .00000714  00000-0  80885-4 0  9994
2   694  30.3558  86.5560 0585324 141.1660 223.2518 14.02670310859280
Epoch (UTC): 25 November 2020 01:01:36
Eccentricity: 0.0585324
inclination: 30.3558°
perigee height: 459 km
apogee height: 1309 km
right ascension of ascending node: 86.5560°
argument of perigee: 141.1660°
revolutions per day: 14.02670310
mean anomaly at epoch: 223.2518°
orbit number at epoch: 85928

The dashed part of the orbit path shows where the satellite is in the earth's shadow,  

DLR